M I D A S
Marine Information and Data Acquisition System
Tripno 1242 of the Zeeleeuw from 2007-03-29 05:00:32 to 2007-03-29 07:51:53
Back to CruiseResearch ActivitiesStationsMapUnderway DataData graphs

EquipmentUnitsComment
TimeDGPSUTC
LatitudeDGPSDM.mWGS84
LongitudeDGPSDM.mWGS84
HeadingGyrodeg 
SOGDGPSknotsSpeed over ground
COGDGPSdegCourse over ground
DepthEcho soundermeters200 kHz
Missing or incorrect values are displayed as -999
Navigation data collected by the RV Zeeleeuw from 2007-03-29 05:01:44 to 2007-03-29 07:56:21
                                                                                    Next 1000 lines
Time Latitude Longitude Heading SOG COG Depth
2007-03-29 05:01:55 51°13.601 2°56.097 112.2 0.6 296 -999
2007-03-29 05:01:59 51°13.601 2°56.096 112.2 0.9 291 -999
2007-03-29 05:02:04 51°13.602 2°56.094 112.3 1.2 291 -999
2007-03-29 05:02:09 51°13.602 2°56.091 112.7 1.4 292 -999
2007-03-29 05:02:15 51°13.604 2°56.087 113.1 1.8 292 119.2
2007-03-29 05:02:19 51°13.605 2°56.083 113.5 2.1 292 -999
2007-03-29 05:02:24 51°13.606 2°56.079 113.9 2.3 293 -999
2007-03-29 05:02:29 51°13.607 2°56.073 114.5 2.5 294 -999
2007-03-29 05:02:34 51°13.609 2°56.068 115 2.7 294 -999
2007-03-29 05:02:40 51°13.611 2°56.061 115.4 3 294 -999
2007-03-29 05:02:44 51°13.612 2°56.056 115.8 3.2 295 -999
2007-03-29 05:02:49 51°13.614 2°56.049 115.8 3.3 294 -999
2007-03-29 05:02:54 51°13.616 2°56.042 115.7 3.5 294 -999
2007-03-29 05:03:00 51°13.618 2°56.033 115.4 3.6 293 -999
2007-03-29 05:03:05 51°13.62 2°56.026 115 3.7 293 -999
2007-03-29 05:03:09 51°13.622 2°56.02 114.7 3.7 292 -999
2007-03-29 05:03:14 51°13.624 2°56.012 114.6 3.8 291 -999
2007-03-29 05:03:19 51°13.626 2°56.004 114.6 3.8 291 -999
2007-03-29 05:03:25 51°13.628 2°55.994 115.3 4 291 -999
2007-03-29 05:03:29 51°13.629 2°55.988 116.3 4 292 -999
2007-03-29 05:03:34 51°13.632 2°55.979 117.8 4.1 294 -999
2007-03-29 05:03:39 51°13.634 2°55.971 119.4 4.3 294 -999
2007-03-29 05:03:44 51°13.637 2°55.962 120.7 4.4 296 -999
2007-03-29 05:03:49 51°13.64 2°55.953 122 4.6 297 -999
2007-03-29 05:03:54 51°13.643 2°55.944 123.2 4.7 299 -999
2007-03-29 05:03:59 51°13.646 2°55.935 124.4 4.8 299 -999
2007-03-29 05:04:04 51°13.65 2°55.926 125.5 4.8 301 -999
2007-03-29 05:04:09 51°13.653 2°55.917 126.2 4.9 302 -999
2007-03-29 05:04:14 51°13.657 2°55.908 127 4.9 303 -999
2007-03-29 05:04:19 51°13.661 2°55.899 127.7 4.8 303 -999
2007-03-29 05:04:24 51°13.664 2°55.89 128.1 4.7 304 -999
2007-03-29 05:04:29 51°13.668 2°55.881 128.2 4.7 304 -999
2007-03-29 05:04:35 51°13.672 2°55.871 128.2 4.6 304 -999
2007-03-29 05:04:39 51°13.675 2°55.865 128.2 4.4 304 -999
2007-03-29 05:04:44 51°13.678 2°55.857 128.4 4.3 305 -999
2007-03-29 05:04:49 51°13.682 2°55.849 128.4 4.4 305 -999
2007-03-29 05:04:54 51°13.685 2°55.84 128.4 4.5 305 -999
2007-03-29 05:04:59 51°13.689 2°55.832 128.3 4.6 305 -999
2007-03-29 05:05:05 51°13.694 2°55.822 128.2 4.5 305 -999
2007-03-29 05:05:09 51°13.696 2°55.816 127.9 4.5 305 -999
2007-03-29 05:05:14 51°13.7 2°55.808 127.6 4.4 305 -999
2007-03-29 05:05:20 51°13.704 2°55.799 127.1 4.2 305 -999
2007-03-29 05:05:25 51°13.707 2°55.791 126.8 4.1 305 -999
2007-03-29 05:05:29 51°13.71 2°55.786 126.2 4 304 -999
2007-03-29 05:05:34 51°13.712 2°55.778 125.5 3.8 304 -999
2007-03-29 05:05:39 51°13.715 2°55.772 125 3.7 304 52.4
2007-03-29 05:05:45 51°13.719 2°55.764 124.8 3.5 303 12.1
2007-03-29 05:05:49 51°13.721 2°55.759 124.7 3.3 303 11.9
2007-03-29 05:05:54 51°13.723 2°55.753 124.2 3 302 12.2
2007-03-29 05:05:59 51°13.725 2°55.748 123.4 2.7 301 12.1
2007-03-29 05:06:04 51°13.726 2°55.743 122.1 2.4 300 11.5
2007-03-29 05:06:09 51°13.728 2°55.739 120.9 2.2 300 11.2
2007-03-29 05:06:14 51°13.729 2°55.736 120 1.7 299 11.5
2007-03-29 05:06:19 51°13.73 2°55.734 119 1.1 303 11.5
2007-03-29 05:06:24 51°13.731 2°55.733 117.2 0.6 308 11.5
2007-03-29 05:06:29 51°13.731 2°55.733 113.7 0.3 355 11.5
2007-03-29 05:06:34 51°13.731 2°55.733 109.4 0.2 23 11.4
2007-03-29 05:06:39 51°13.732 2°55.733 104.8 0.3 16 11.4
2007-03-29 05:06:44 51°13.732 2°55.734 100.7 0.2 8 11.3
2007-03-29 05:06:49 51°13.732 2°55.733 97.5 0.3 345 11.2
2007-03-29 05:06:54 51°13.733 2°55.733 94.8 0.3 322 11.3
2007-03-29 05:06:59 51°13.733 2°55.732 92.1 0.4 308 11.2
2007-03-29 05:07:04 51°13.733 2°55.731 89.8 0.5 287 11.2
2007-03-29 05:07:09 51°13.733 2°55.73 87.6 0.6 285 11.2
2007-03-29 05:07:14 51°13.733 2°55.728 85.5 0.8 276 11.2
2007-03-29 05:07:19 51°13.733 2°55.726 83.6 1 274 11.2
2007-03-29 05:07:24 51°13.733 2°55.723 81.9 1.2 269 11.3
2007-03-29 05:07:29 51°13.733 2°55.721 80 1.2 269 11.2
2007-03-29 05:07:34 51°13.733 2°55.718 78.1 1.1 265 11.4
2007-03-29 05:07:40 51°13.733 2°55.715 76 1 266 -999
2007-03-29 05:07:45 51°13.733 2°55.713 73.4 0.9 262 -999
2007-03-29 05:07:49 51°13.733 2°55.712 71.1 0.8 267 -999
2007-03-29 05:07:54 51°13.733 2°55.711 69.6 0.5 272 -999
2007-03-29 05:07:59 51°13.733 2°55.71 67.8 0.3 294 4.8
2007-03-29 05:08:05 51°13.733 2°55.71 65 0.3 13 -999
2007-03-29 05:08:09 51°13.734 2°55.71 60.8 0.5 31 11
2007-03-29 05:08:14 51°13.734 2°55.711 56.6 0.6 35 -999
2007-03-29 05:08:19 51°13.735 2°55.712 53.2 0.6 26 11
2007-03-29 05:08:24 51°13.736 2°55.713 50.6 0.5 34 -999
2007-03-29 05:08:29 51°13.736 2°55.713 47.7 0.3 12 4.9
2007-03-29 05:08:34 51°13.736 2°55.713 44.2 0.1 348 4.8
2007-03-29 05:08:39 51°13.736 2°55.712 42.5 0.3 260 11
2007-03-29 05:08:44 51°13.736 2°55.711 39.6 0.5 229 10.9
2007-03-29 05:08:49 51°13.735 2°55.71 37 0.8 223 10.9
2007-03-29 05:08:54 51°13.734 2°55.709 34.5 1 218 10.8
2007-03-29 05:08:59 51°13.733 2°55.707 32.2 1.1 216 10.8
2007-03-29 05:09:04 51°13.732 2°55.706 29.8 1.1 213 10.9
2007-03-29 05:09:09 51°13.731 2°55.704 27.8 1 212 10.9
2007-03-29 05:09:14 51°13.73 2°55.704 25.3 0.8 210 -999
2007-03-29 05:09:20 51°13.729 2°55.703 22.9 0.5 215 -999
2007-03-29 05:09:24 51°13.729 2°55.702 20.3 0.2 223 -999
2007-03-29 05:09:29 51°13.729 2°55.702 17.1 0.2 308 -999
2007-03-29 05:09:34 51°13.73 2°55.702 14.3 0.4 356 6.4
2007-03-29 05:09:39 51°13.73 2°55.702 11.2 0.5 357 4.8
2007-03-29 05:09:45 51°13.731 2°55.702 7.9 0.5 358 -999
2007-03-29 05:09:49 51°13.732 2°55.702 2.9 0.6 356 -999
2007-03-29 05:09:54 51°13.733 2°55.702 0.1 0.6 354 -999
2007-03-29 05:09:59 51°13.734 2°55.701 357.2 0.7 348 4.8
2007-03-29 05:10:04 51°13.735 2°55.701 355.6 0.9 348 10.9
2007-03-29 05:10:09 51°13.736 2°55.701 353.4 1.1 345 10.8
2007-03-29 05:10:14 51°13.738 2°55.7 350.6 1.5 344 10.8
2007-03-29 05:10:19 51°13.741 2°55.698 348.1 1.9 341 10.7
2007-03-29 05:10:24 51°13.744 2°55.697 346.2 2.3 340 10.7
2007-03-29 05:10:29 51°13.747 2°55.694 345 2.9 337 10.9
2007-03-29 05:10:34 51°13.751 2°55.692 344 3.3 339 10.9
2007-03-29 05:10:39 51°13.756 2°55.689 343.3 3.7 337 10.8
2007-03-29 05:10:44 51°13.761 2°55.685 342.5 4.2 337 10.7
2007-03-29 05:10:49 51°13.767 2°55.681 342.4 4.5 337 10.4
2007-03-29 05:10:54 51°13.773 2°55.677 342.4 4.9 338 10.6
2007-03-29 05:10:59 51°13.78 2°55.673 342.5 5.2 338 10.5
2007-03-29 05:11:04 51°13.787 2°55.668 342.4 5.5 337 10.5
2007-03-29 05:11:09 51°13.795 2°55.663 341.8 5.8 337 10.5
2007-03-29 05:11:14 51°13.802 2°55.658 341.5 6 337 10.4
2007-03-29 05:11:19 51°13.81 2°55.652 341.1 6.2 336 10.4
2007-03-29 05:11:24 51°13.818 2°55.646 340.9 6.4 338 10.4
2007-03-29 05:11:29 51°13.827 2°55.641 341.8 6.6 338 10.4
2007-03-29 05:11:34 51°13.836 2°55.635 342.2 6.8 337 10.3
2007-03-29 05:11:39 51°13.845 2°55.629 342.2 6.9 338 10.4
2007-03-29 05:11:44 51°13.854 2°55.623 342.2 7 338 10.4
2007-03-29 05:11:49 51°13.863 2°55.617 342.5 7.1 338 10.3
2007-03-29 05:11:54 51°13.872 2°55.611 342.7 7.2 337 10.3
2007-03-29 05:11:59 51°13.881 2°55.605 342.5 7.3 337 10.3
2007-03-29 05:12:04 51°13.891 2°55.599 342.3 7.4 337 10.3
2007-03-29 05:12:09 51°13.9 2°55.593 342.2 7.4 338 10.8
2007-03-29 05:12:14 51°13.91 2°55.587 342.5 7.5 339 10.2
2007-03-29 05:12:19 51°13.92 2°55.581 343.6 7.5 339 10.4
2007-03-29 05:12:24 51°13.929 2°55.575 344 7.5 339 10.3
2007-03-29 05:12:29 51°13.939 2°55.569 344 7.6 339 10.4
2007-03-29 05:12:34 51°13.949 2°55.562 344 7.6 339 10.4
2007-03-29 05:12:39 51°13.959 2°55.557 344 7.6 339 10.4
2007-03-29 05:12:44 51°13.969 2°55.55 344 7.6 339 10.5
2007-03-29 05:12:49 51°13.979 2°55.544 343.4 7.7 339 10.5
2007-03-29 05:12:54 51°13.989 2°55.538 342.9 7.7 339 10.8
2007-03-29 05:12:59 51°13.998 2°55.532 342.9 7.7 338 10.5
2007-03-29 05:13:04 51°14.008 2°55.526 342.9 7.7 339 10.5
2007-03-29 05:13:09 51°14.018 2°55.519 342.9 7.7 338 10.6
2007-03-29 05:13:14 51°14.028 2°55.513 342.3 7.7 338 10.6
2007-03-29 05:13:19 51°14.038 2°55.507 341.9 7.7 337 10.5
2007-03-29 05:13:24 51°14.048 2°55.5 341.8 7.7 337 10.6
2007-03-29 05:13:29 51°14.058 2°55.493 341.7 7.7 336 10.6
2007-03-29 05:13:34 51°14.068 2°55.486 341.2 7.7 336 10.6
2007-03-29 05:13:39 51°14.077 2°55.479 340.5 7.7 335 10.6
2007-03-29 05:13:44 51°14.087 2°55.472 340.4 7.7 337 10.7
2007-03-29 05:13:49 51°14.097 2°55.465 341.1 7.7 336 10.6
2007-03-29 05:13:54 51°14.106 2°55.458 341.1 7.7 335 10.6
2007-03-29 05:13:59 51°14.116 2°55.451 340.4 7.7 334 10.6
2007-03-29 05:14:04 51°14.126 2°55.443 339.7 7.7 334 10.6
2007-03-29 05:14:09 51°14.135 2°55.436 339.1 7.7 333 10.6
2007-03-29 05:14:14 51°14.145 2°55.428 338.6 7.9 333 10.6
2007-03-29 05:14:19 51°14.155 2°55.42 337.9 8 332 10.6
2007-03-29 05:14:24 51°14.165 2°55.411 337.1 8.1 331 10.5
2007-03-29 05:14:29 51°14.175 2°55.402 336 8.2 330 10.6
2007-03-29 05:14:34 51°14.185 2°55.393 335.1 8.4 330 10.8
2007-03-29 05:14:39 51°14.195 2°55.382 334 8.6 327 -999
2007-03-29 05:14:44 51°14.205 2°55.371 331.8 8.7 324 10.5
2007-03-29 05:14:49 51°14.214 2°55.359 329.4 8.8 322 10.5
2007-03-29 05:14:54 51°14.224 2°55.347 327.3 8.9 321 -999
2007-03-29 05:14:59 51°14.233 2°55.334 325.2 9.1 319 -999
2007-03-29 05:15:04 51°14.242 2°55.32 323.9 9.2 317 10.6
2007-03-29 05:15:09 51°14.252 2°55.306 322.7 9.3 316 10.5
2007-03-29 05:15:14 51°14.261 2°55.29 321.3 9.4 314 10.5
2007-03-29 05:15:19 51°14.27 2°55.275 319.1 9.5 313 10.2
2007-03-29 05:15:24 51°14.278 2°55.259 317.7 9.6 311 10.3
2007-03-29 05:15:29 51°14.287 2°55.242 315.9 9.9 309 10.6
2007-03-29 05:15:34 51°14.295 2°55.224 314.3 10 308 10.2
2007-03-29 05:15:39 51°14.304 2°55.207 313.2 10.1 307 10.1
2007-03-29 05:15:44 51°14.313 2°55.188 312 10.3 306 10.1
2007-03-29 05:15:49 51°14.321 2°55.17 311.3 10.5 306 10.2
2007-03-29 05:15:54 51°14.33 2°55.15 310.8 10.7 305 10
2007-03-29 05:15:59 51°14.338 2°55.13 309.6 10.9 305 10
2007-03-29 05:16:04 51°14.347 2°55.11 309.3 11.2 306 10.1
2007-03-29 05:16:09 51°14.357 2°55.09 310 11.5 306 10
2007-03-29 05:16:14 51°14.367 2°55.069 311.3 11.7 307 9.8
2007-03-29 05:16:19 51°14.377 2°55.048 311.8 11.9 307 10
2007-03-29 05:16:25 51°14.388 2°55.022 312 12.1 306 10
2007-03-29 05:16:30 51°14.398 2°55 312 12.2 304 10.2
2007-03-29 05:16:34 51°14.405 2°54.981 311.2 12.4 300 9.9
2007-03-29 05:16:40 51°14.414 2°54.95 307 12.6 296 10
2007-03-29 05:16:45 51°14.421 2°54.925 303.2 12.8 294 10
2007-03-29 05:16:50 51°14.429 2°54.899 301.2 12.9 295 10.1
2007-03-29 05:16:54 51°14.435 2°54.878 301 13.1 295 10.1
2007-03-29 05:17:00 51°14.445 2°54.846 301.7 13.1 296 9.9
2007-03-29 05:17:05 51°14.452 2°54.82 302.4 13.2 295 10.2
2007-03-29 05:17:10 51°14.46 2°54.794 302.1 13.3 295 10.3
2007-03-29 05:17:14 51°14.467 2°54.773 301.9 13.3 297 10.1
2007-03-29 05:17:20 51°14.477 2°54.741 302.5 13.3 297 10.3
2007-03-29 05:17:25 51°14.486 2°54.715 303.6 13.3 299 9.9
2007-03-29 05:17:29 51°14.493 2°54.695 304.5 13.3 299 9.9
2007-03-29 05:17:35 51°14.506 2°54.666 305.8 13.2 305 10
2007-03-29 05:17:40 51°14.518 2°54.645 310.6 13.1 311 9.9
2007-03-29 05:17:45 51°14.532 2°54.626 315.6 12.9 318 9.8
2007-03-29 05:17:50 51°14.546 2°54.609 322.8 12.9 322 9.9
2007-03-29 05:17:54 51°14.557 2°54.595 328.2 12.9 323 9.4
2007-03-29 05:18:00 51°14.575 2°54.576 330.3 12.8 327 9.3
2007-03-29 05:18:05 51°14.591 2°54.562 334.4 12.8 329 9.3
2007-03-29 05:18:09 51°14.603 2°54.551 337.2 12.8 331 9.3
2007-03-29 05:18:14 51°14.619 2°54.538 339 12.9 331 9.2
2007-03-29 05:18:19 51°14.634 2°54.524 340 12.9 331 9.2
2007-03-29 05:18:24 51°14.65 2°54.51 340.3 12.9 331 9.2
2007-03-29 05:18:29 51°14.666 2°54.496 340 12.9 330 9
2007-03-29 05:18:34 51°14.681 2°54.482 339.3 12.9 329 9
2007-03-29 05:18:40 51°14.7 2°54.465 338.2 12.9 330 9
2007-03-29 05:18:44 51°14.712 2°54.453 338.3 12.9 331 9.1
2007-03-29 05:18:49 51°14.728 2°54.44 338.9 12.9 332 9
2007-03-29 05:18:54 51°14.744 2°54.427 340 12.9 334 8.9
2007-03-29 05:18:59 51°14.76 2°54.415 341.8 12.9 335 8.9
2007-03-29 05:19:04 51°14.777 2°54.404 343 12.8 338 8.8
2007-03-29 05:19:09 51°14.793 2°54.394 344.6 12.8 339 8.7
2007-03-29 05:19:14 51°14.81 2°54.385 346.6 12.8 340 8.6
2007-03-29 05:19:20 51°14.83 2°54.372 347.9 12.7 339 8.6
2007-03-29 05:19:24 51°14.843 2°54.363 348.4 12.8 335 8.6
2007-03-29 05:19:29 51°14.858 2°54.35 346.1 12.8 332 8.8
2007-03-29 05:19:34 51°14.873 2°54.334 342.8 12.9 327 8.9
2007-03-29 05:19:39 51°14.887 2°54.317 338 12.9 321 8.5
2007-03-29 05:19:44 51°14.9 2°54.297 332.3 12.9 316 8.4
2007-03-29 05:19:49 51°14.912 2°54.276 327.2 12.8 312 8.4
2007-03-29 05:19:54 51°14.924 2°54.255 322.5 12.7 310 8.3
2007-03-29 05:19:59 51°14.934 2°54.232 320 12.8 307 8.1
2007-03-29 05:20:04 51°14.944 2°54.209 317 12.9 305 8.1
2007-03-29 05:20:10 51°14.956 2°54.18 314.3 12.9 303 8
2007-03-29 05:20:14 51°14.963 2°54.16 312.9 13 301 8.1
2007-03-29 05:20:20 51°14.973 2°54.13 310.5 13 298 8.1
2007-03-29 05:20:25 51°14.982 2°54.104 307.9 13 297 8
2007-03-29 05:20:29 51°14.988 2°54.084 306.5 13.1 298 8
2007-03-29 05:20:34 51°14.997 2°54.058 306.1 13.1 297 8.3
2007-03-29 05:20:40 51°15.007 2°54.027 305.8 13.2 298 8.5
2007-03-29 05:20:45 51°15.016 2°54.001 305.7 13.3 298 8.3
2007-03-29 05:20:50 51°15.025 2°53.975 305.9 13.3 298 8.6
2007-03-29 05:20:54 51°15.032 2°53.954 306.2 13.4 299 8.7
2007-03-29 05:21:00 51°15.043 2°53.923 306.7 13.4 299 8.7
2007-03-29 05:21:05 51°15.052 2°53.898 307.3 13.4 300 8.8
2007-03-29 05:21:10 51°15.061 2°53.872 307.9 13.4 300 9
2007-03-29 05:21:14 51°15.068 2°53.851 308.4 13.4 300 9
2007-03-29 05:21:20 51°15.078 2°53.82 308.5 13.4 297 8.5
2007-03-29 05:21:24 51°15.085 2°53.798 307.1 13.3 295 8.5
2007-03-29 05:21:29 51°15.092 2°53.771 305.1 13.3 294 8.5
2007-03-29 05:21:34 51°15.1 2°53.744 303.7 13.4 293 8.5
2007-03-29 05:21:40 51°15.108 2°53.711 302.4 13.4 292 8.6
2007-03-29 05:21:45 51°15.115 2°53.683 301.6 13.5 292 8.9
2007-03-29 05:21:49 51°15.121 2°53.661 301 13.6 291 8.7
2007-03-29 05:21:54 51°15.128 2°53.633 300.4 13.5 292 8.6
2007-03-29 05:22:00 51°15.136 2°53.6 300.2 13.5 291 8.9
2007-03-29 05:22:05 51°15.142 2°53.571 300.3 13.5 290 8.8
2007-03-29 05:22:09 51°15.146 2°53.548 298.9 13.6 288 8.9
2007-03-29 05:22:14 51°15.152 2°53.52 296.9 13.6 287 9
2007-03-29 05:22:19 51°15.157 2°53.491 295.7 13.6 286 9
2007-03-29 05:22:24 51°15.162 2°53.461 294.5 13.7 285 9
2007-03-29 05:22:29 51°15.167 2°53.432 293.8 13.7 285 9.2
2007-03-29 05:22:34 51°15.172 2°53.403 293.2 13.7 285 9.1
2007-03-29 05:22:39 51°15.177 2°53.374 293.1 13.7 285 9.2
2007-03-29 05:22:44 51°15.182 2°53.344 293.1 13.7 285 9.3
2007-03-29 05:22:49 51°15.187 2°53.315 293.2 13.7 285 9.2
2007-03-29 05:22:54 51°15.192 2°53.286 293.6 13.7 285 9.3
2007-03-29 05:23:00 51°15.197 2°53.25 293.6 13.7 284 9.4
2007-03-29 05:23:04 51°15.201 2°53.227 292.9 13.7 283 9.3
2007-03-29 05:23:09 51°15.205 2°53.197 291.8 13.8 283 9.4
2007-03-29 05:23:14 51°15.209 2°53.167 291.1 13.8 282 9.4
2007-03-29 05:23:19 51°15.213 2°53.138 290.6 13.8 282 9.5
2007-03-29 05:23:25 51°15.218 2°53.102 290 13.8 282 9.5
2007-03-29 05:23:29 51°15.221 2°53.078 289.8 13.8 282 9.5
2007-03-29 05:23:34 51°15.224 2°53.048 289.8 13.8 282 9.6
2007-03-29 05:23:40 51°15.229 2°53.013 289.6 13.8 282 9.6
2007-03-29 05:23:44 51°15.232 2°52.989 289.7 13.8 282 9.7
2007-03-29 05:23:49 51°15.237 2°52.959 290.2 13.8 283 9.7
2007-03-29 05:23:54 51°15.241 2°52.929 290.6 13.8 283 9.8
2007-03-29 05:23:59 51°15.245 2°52.9 291 13.8 282 9.8
2007-03-29 05:24:04 51°15.249 2°52.87 290.9 13.8 282 9.9
2007-03-29 05:24:09 51°15.253 2°52.84 290.7 13.8 282 9.8
2007-03-29 05:24:14 51°15.257 2°52.81 290.1 13.8 282 9.9
2007-03-29 05:24:19 51°15.261 2°52.781 289.7 13.8 281 10
2007-03-29 05:24:24 51°15.264 2°52.751 289.3 13.8 281 10
2007-03-29 05:24:29 51°15.268 2°52.721 289 13.8 281 10
2007-03-29 05:24:34 51°15.272 2°52.691 289 13.8 281 10.1
2007-03-29 05:24:39 51°15.275 2°52.661 289.2 13.8 281 10.2
2007-03-29 05:24:44 51°15.279 2°52.631 289.2 13.8 282 10.2
2007-03-29 05:24:49 51°15.283 2°52.601 289.5 13.8 282 10.2
2007-03-29 05:24:54 51°15.287 2°52.571 289.7 13.8 282 10.2
2007-03-29 05:24:59 51°15.291 2°52.542 289.7 13.8 282 10.3
2007-03-29 05:25:04 51°15.295 2°52.512 289.7 13.7 282 10.4
2007-03-29 05:25:09 51°15.299 2°52.482 289.7 13.7 282 10.4
2007-03-29 05:25:14 51°15.303 2°52.452 289.6 13.8 281 10.5
2007-03-29 05:25:19 51°15.306 2°52.422 289.4 13.7 281 10.5
2007-03-29 05:25:24 51°15.31 2°52.392 288.9 13.8 281 10.6
2007-03-29 05:25:29 51°15.313 2°52.363 288.8 13.7 281 10.6
2007-03-29 05:25:34 51°15.317 2°52.333 288.8 13.7 281 10.7
2007-03-29 05:25:40 51°15.322 2°52.297 289.2 13.7 282 10.8
2007-03-29 05:25:45 51°15.326 2°52.268 289.5 13.7 282 10.9
2007-03-29 05:25:49 51°15.328 2°52.244 289.6 13.7 282 10.8
2007-03-29 05:25:54 51°15.332 2°52.214 289.6 13.7 282 10.9
2007-03-29 05:25:59 51°15.336 2°52.185 289.5 13.7 282 11
2007-03-29 05:26:04 51°15.34 2°52.155 289.3 13.7 282 11
2007-03-29 05:26:09 51°15.344 2°52.125 289.2 13.7 282 11.1
2007-03-29 05:26:14 51°15.348 2°52.096 289.5 13.7 282 11.1
2007-03-29 05:26:19 51°15.352 2°52.066 289.8 13.7 282 11.2
2007-03-29 05:26:24 51°15.356 2°52.037 290 13.7 282 11.2
2007-03-29 05:26:29 51°15.36 2°52.007 290.1 13.7 282 11.3
2007-03-29 05:26:34 51°15.364 2°51.978 289.9 13.7 282 11.3
2007-03-29 05:26:39 51°15.368 2°51.948 289.8 13.7 282 11.4
2007-03-29 05:26:44 51°15.372 2°51.918 289.8 13.7 282 11.4
2007-03-29 05:26:49 51°15.375 2°51.889 289.7 13.7 282 11.4
2007-03-29 05:26:54 51°15.379 2°51.859 289.5 13.7 282 11.6
2007-03-29 05:26:59 51°15.383 2°51.83 289.5 13.7 282 11.6
2007-03-29 05:27:04 51°15.387 2°51.8 289.5 13.6 282 11.6
2007-03-29 05:27:09 51°15.391 2°51.771 289.5 13.6 282 11.7
2007-03-29 05:27:14 51°15.395 2°51.741 289.5 13.7 282 11.6
2007-03-29 05:27:19 51°15.398 2°51.712 289.5 13.6 282 11.7
2007-03-29 05:27:24 51°15.402 2°51.682 289.5 13.6 281 11.6
2007-03-29 05:27:29 51°15.406 2°51.653 289.5 13.6 282 11.6
2007-03-29 05:27:34 51°15.41 2°51.623 289.5 13.6 282 11.6
2007-03-29 05:27:39 51°15.413 2°51.594 289.4 13.6 282 11.8
2007-03-29 05:27:44 51°15.417 2°51.564 289.4 13.6 282 11.7
2007-03-29 05:27:49 51°15.421 2°51.535 289.5 13.6 283 11.7
2007-03-29 05:27:54 51°15.426 2°51.505 290.2 13.6 283 11.7
2007-03-29 05:27:59 51°15.43 2°51.476 290.3 13.6 283 11.7
2007-03-29 05:28:04 51°15.434 2°51.447 290.3 13.5 283 11.6
2007-03-29 05:28:09 51°15.438 2°51.418 290.3 13.5 282 11.7
2007-03-29 05:28:14 51°15.442 2°51.388 290.3 13.5 283 11.7
2007-03-29 05:28:19 51°15.446 2°51.359 290 13.5 282 11.8
2007-03-29 05:28:24 51°15.45 2°51.33 289.9 13.5 282 11.8
2007-03-29 05:28:29 51°15.454 2°51.301 289.7 13.5 282 11.8
2007-03-29 05:28:34 51°15.457 2°51.272 289.8 13.5 282 11.8
2007-03-29 05:28:39 51°15.461 2°51.242 289.8 13.5 282 11.7
2007-03-29 05:28:44 51°15.465 2°51.213 289.9 13.5 282 11.8
2007-03-29 05:28:49 51°15.469 2°51.184 290 13.5 282 11.9
2007-03-29 05:28:54 51°15.473 2°51.155 290.2 13.5 282 11.8
2007-03-29 05:28:59 51°15.477 2°51.126 290.2 13.4 282 11.9
2007-03-29 05:29:04 51°15.481 2°51.097 290.1 13.5 282 11.9
2007-03-29 05:29:09 51°15.485 2°51.068 290.1 13.4 283 11.8
2007-03-29 05:29:14 51°15.489 2°51.039 290.3 13.4 283 11.8
2007-03-29 05:29:19 51°15.493 2°51.01 290.7 13.4 283 11.8
2007-03-29 05:29:24 51°15.498 2°50.981 290.7 13.5 282 11.8
2007-03-29 05:29:29 51°15.501 2°50.952 290.5 13.4 282 11.9
2007-03-29 05:29:34 51°15.506 2°50.922 290.4 13.4 282 11.9
2007-03-29 05:29:39 51°15.509 2°50.894 290.3 13.4 283 11.9
2007-03-29 05:29:44 51°15.514 2°50.865 290.5 13.4 283 11.9
2007-03-29 05:29:49 51°15.518 2°50.836 290.7 13.4 283 11.9
2007-03-29 05:29:54 51°15.522 2°50.807 290.8 13.4 283 11.9
2007-03-29 05:29:59 51°15.526 2°50.778 290.4 13.4 282 12
2007-03-29 05:30:04 51°15.53 2°50.749 290.1 13.4 282 12.1
2007-03-29 05:30:09 51°15.534 2°50.72 290 13.4 282 11.9
2007-03-29 05:30:14 51°15.538 2°50.691 290.1 13.5 282 11.9
2007-03-29 05:30:19 51°15.542 2°50.661 290.1 13.5 283 11.9
2007-03-29 05:30:24 51°15.546 2°50.632 290.3 13.5 283 11.9
2007-03-29 05:30:29 51°15.55 2°50.603 290.3 13.5 283 11.9
2007-03-29 05:30:34 51°15.554 2°50.574 290.5 13.5 283 11.9
2007-03-29 05:30:39 51°15.558 2°50.545 290.4 13.4 283 12
2007-03-29 05:30:44 51°15.562 2°50.516 290.3 13.4 282 12
2007-03-29 05:30:49 51°15.566 2°50.487 290.1 13.4 283 12.1
2007-03-29 05:30:54 51°15.57 2°50.458 290.1 13.4 283 12.1
2007-03-29 05:30:59 51°15.574 2°50.429 290.1 13.5 283 12
2007-03-29 05:31:04 51°15.578 2°50.4 290.1 13.5 282 12.1
2007-03-29 05:31:09 51°15.582 2°50.371 289.9 13.5 282 12
2007-03-29 05:31:14 51°15.586 2°50.342 289.9 13.5 282 12.1
2007-03-29 05:31:19 51°15.59 2°50.313 289.9 13.5 283 12.1
2007-03-29 05:31:24 51°15.594 2°50.284 290 13.5 282 12.2
2007-03-29 05:31:29 51°15.598 2°50.255 289.9 13.5 282 12.3
2007-03-29 05:31:34 51°15.602 2°50.226 289.9 13.5 282 12.2
2007-03-29 05:31:39 51°15.606 2°50.197 289.9 13.5 282 12.2
2007-03-29 05:31:44 51°15.61 2°50.168 289.9 13.5 282 12.2
2007-03-29 05:31:49 51°15.614 2°50.139 289.9 13.5 283 12.2
2007-03-29 05:31:54 51°15.618 2°50.11 289.9 13.5 283 12.2
2007-03-29 05:31:59 51°15.622 2°50.081 289.9 13.5 283 12.5
2007-03-29 05:32:04 51°15.626 2°50.052 290 13.5 283 12.3
2007-03-29 05:32:09 51°15.63 2°50.022 289.9 13.5 282 12.3
2007-03-29 05:32:14 51°15.634 2°49.993 289.9 13.5 282 12.2
2007-03-29 05:32:19 51°15.638 2°49.964 289.8 13.5 282 12.2
2007-03-29 05:32:24 51°15.642 2°49.935 289.6 13.5 282 12.3
2007-03-29 05:32:29 51°15.645 2°49.906 289.3 13.5 282 12.3
2007-03-29 05:32:34 51°15.649 2°49.877 289.5 13.5 282 12.3
2007-03-29 05:32:39 51°15.653 2°49.848 290 13.5 282 12.4
2007-03-29 05:32:45 51°15.658 2°49.813 290.1 13.5 283 12.4
2007-03-29 05:32:49 51°15.661 2°49.79 290.2 13.5 283 12.3
2007-03-29 05:32:54 51°15.665 2°49.761 290.3 13.5 283 12.3
2007-03-29 05:32:59 51°15.67 2°49.732 290.4 13.4 283 12.2
2007-03-29 05:33:04 51°15.674 2°49.703 290.6 13.4 283 12.1
2007-03-29 05:33:09 51°15.679 2°49.674 290.3 13.4 283 12
2007-03-29 05:33:14 51°15.684 2°49.645 290.3 13.4 283 11.9
2007-03-29 05:33:19 51°15.687 2°49.616 290.3 13.4 283 11.7
2007-03-29 05:33:24 51°15.691 2°49.587 290.3 13.4 283 11.6
2007-03-29 05:33:29 51°15.695 2°49.558 290.3 13.3 283 11.3
2007-03-29 05:33:34 51°15.699 2°49.53 290.3 13.4 283 11.3
2007-03-29 05:33:39 51°15.703 2°49.501 290.4 13.3 283 11.1
2007-03-29 05:33:44 51°15.707 2°49.472 290.5 13.3 283 11
2007-03-29 05:33:49 51°15.711 2°49.443 290.6 13.3 283 10.8
2007-03-29 05:33:54 51°15.715 2°49.415 290.7 13.3 282 10.6
2007-03-29 05:33:59 51°15.719 2°49.386 290.3 13.3 282 10.5
2007-03-29 05:34:04 51°15.723 2°49.358 290.1 13.2 282 10.5
2007-03-29 05:34:09 51°15.727 2°49.329 290.2 13.2 282 10.3
2007-03-29 05:34:14 51°15.731 2°49.3 290.3 13.3 282 10.2
2007-03-29 05:34:19 51°15.735 2°49.272 290.3 13.3 282 10.2
2007-03-29 05:34:24 51°15.739 2°49.243 290.2 13.2 282 10.1
2007-03-29 05:34:30 51°15.744 2°49.208 289.9 13.2 281 10.1
2007-03-29 05:34:34 51°15.747 2°49.185 289.6 13.3 282 10.1
2007-03-29 05:34:39 51°15.751 2°49.157 289.8 13.3 282 10.1
2007-03-29 05:34:44 51°15.755 2°49.128 290.1 13.3 282 10.1
2007-03-29 05:34:49 51°15.759 2°49.099 290.3 13.3 282 10
2007-03-29 05:34:54 51°15.764 2°49.07 290.6 13.3 282 10
2007-03-29 05:34:59 51°15.767 2°49.042 290.8 13.3 282 10.2
2007-03-29 05:35:04 51°15.771 2°49.013 290.5 13.3 282 10.2
2007-03-29 05:35:09 51°15.774 2°48.984 290.3 13.4 281 10.2
2007-03-29 05:35:14 51°15.778 2°48.955 289.9 13.4 281 10.3
2007-03-29 05:35:19 51°15.782 2°48.926 289.8 13.4 282 10.3
2007-03-29 05:35:24 51°15.786 2°48.897 290.2 13.4 282 10.5
2007-03-29 05:35:29 51°15.79 2°48.867 290.5 13.4 282 10.5
2007-03-29 05:35:34 51°15.794 2°48.839 290.7 13.5 282 10.6
2007-03-29 05:35:39 51°15.798 2°48.809 290.8 13.5 282 10.7
2007-03-29 05:35:44 51°15.802 2°48.78 290.9 13.5 282 10.8
2007-03-29 05:35:49 51°15.806 2°48.751 290.6 13.5 282 10.9
2007-03-29 05:35:54 51°15.81 2°48.722 290.3 13.5 282 10.9
2007-03-29 05:35:59 51°15.814 2°48.692 290.3 13.5 282 11.1
2007-03-29 05:36:04 51°15.818 2°48.663 290.3 13.5 282 11.2
2007-03-29 05:36:09 51°15.822 2°48.634 290.3 13.5 282 11.4
2007-03-29 05:36:14 51°15.826 2°48.605 290.5 13.5 282 11.4
2007-03-29 05:36:19 51°15.83 2°48.575 290.8 13.5 282 11.5
2007-03-29 05:36:24 51°15.834 2°48.546 290.6 13.5 282 11.5
2007-03-29 05:36:29 51°15.838 2°48.517 290.4 13.5 282 11.7
2007-03-29 05:36:34 51°15.842 2°48.487 290.5 13.6 282 11.9
2007-03-29 05:36:39 51°15.846 2°48.458 290.6 13.6 283 11.9
2007-03-29 05:36:44 51°15.85 2°48.429 290.7 13.6 282 12.2
2007-03-29 05:36:49 51°15.854 2°48.399 290.7 13.6 283 12.3
2007-03-29 05:36:54 51°15.858 2°48.37 290.7 13.6 282 12.5
2007-03-29 05:36:59 51°15.862 2°48.34 290.6 13.6 282 12.8
2007-03-29 05:37:04 51°15.866 2°48.311 290.6 13.6 282 13
2007-03-29 05:37:09 51°15.87 2°48.281 290.7 13.6 283 13
2007-03-29 05:37:14 51°15.875 2°48.252 290.7 13.6 283 13.3
2007-03-29 05:37:19 51°15.879 2°48.223 291 13.6 283 13.4
2007-03-29 05:37:24 51°15.883 2°48.193 291 13.7 282 13.6
2007-03-29 05:37:29 51°15.887 2°48.163 290.6 13.7 282 13.8
2007-03-29 05:37:34 51°15.891 2°48.134 290.5 13.7 282 13.9
2007-03-29 05:37:39 51°15.895 2°48.104 290.3 13.7 282 14
2007-03-29 05:37:44 51°15.899 2°48.075 290.3 13.6 282 14
2007-03-29 05:37:49 51°15.903 2°48.045 290.1 13.7 282 14.1
2007-03-29 05:37:54 51°15.906 2°48.015 289.9 13.7 281 14.3
2007-03-29 05:37:59 51°15.91 2°47.986 289.9 13.7 282 14.3
2007-03-29 05:38:04 51°15.914 2°47.956 289.9 13.7 282 14.5
2007-03-29 05:38:09 51°15.918 2°47.927 290.2 13.6 282 14.5
2007-03-29 05:38:14 51°15.922 2°47.897 290.4 13.7 283 14.8
2007-03-29 05:38:19 51°15.927 2°47.868 290.6 13.7 282 14.9
2007-03-29 05:38:24 51°15.931 2°47.838 290.5 13.7 283 15
2007-03-29 05:38:29 51°15.935 2°47.808 290.4 13.7 282 15
2007-03-29 05:38:34 51°15.939 2°47.779 290.3 13.7 283 15.1
2007-03-29 05:38:39 51°15.943 2°47.75 290.5 13.7 283 15.2
2007-03-29 05:38:44 51°15.947 2°47.72 290.5 13.7 283 15.3
2007-03-29 05:38:49 51°15.951 2°47.69 290.5 13.7 282 15.4
2007-03-29 05:38:54 51°15.955 2°47.661 290.3 13.8 282 15.4
2007-03-29 05:38:59 51°15.959 2°47.631 289.9 13.7 282 15.5
2007-03-29 05:39:04 51°15.963 2°47.601 289.7 13.8 283 15.5
2007-03-29 05:39:09 51°15.968 2°47.572 290.3 13.8 283 15.4
2007-03-29 05:39:14 51°15.972 2°47.542 290.3 13.8 283 15.6
2007-03-29 05:39:19 51°15.976 2°47.513 290.3 13.8 283 15.5
2007-03-29 05:39:24 51°15.981 2°47.483 290.3 13.7 284 15.5
2007-03-29 05:39:29 51°15.985 2°47.453 290.3 13.7 283 15.6
2007-03-29 05:39:34 51°15.99 2°47.424 290.4 13.7 284 15.6
2007-03-29 05:39:39 51°15.994 2°47.394 290.4 13.8 283 15.7
2007-03-29 05:39:44 51°15.998 2°47.365 290.3 13.7 283 15.7
2007-03-29 05:39:49 51°16.002 2°47.335 290.3 13.7 283 15.9
2007-03-29 05:39:54 51°16.007 2°47.306 290.1 13.7 283 16
2007-03-29 05:39:59 51°16.011 2°47.276 290 13.7 283 15.9
2007-03-29 05:40:04 51°16.015 2°47.247 289.7 13.7 283 16
2007-03-29 05:40:09 51°16.02 2°47.217 289.7 13.7 284 16
2007-03-29 05:40:14 51°16.024 2°47.188 290.1 13.7 284 15.9
2007-03-29 05:40:19 51°16.029 2°47.159 290.3 13.7 284 15.9
2007-03-29 05:40:24 51°16.033 2°47.129 290.3 13.7 284 15.9
2007-03-29 05:40:29 51°16.038 2°47.1 290.2 13.7 284 15.6
2007-03-29 05:40:34 51°16.042 2°47.07 290.1 13.7 283 15.5
2007-03-29 05:40:39 51°16.046 2°47.041 290.1 13.7 284 15.4
2007-03-29 05:40:44 51°16.051 2°47.012 290 13.6 283 15.2
2007-03-29 05:40:49 51°16.055 2°46.983 289.9 13.6 284 15.1
2007-03-29 05:40:54 51°16.059 2°46.953 290.2 13.6 283 15
2007-03-29 05:40:59 51°16.063 2°46.924 290.1 13.5 282 14.8
2007-03-29 05:41:04 51°16.067 2°46.895 289.5 13.4 281 14.5
2007-03-29 05:41:09 51°16.07 2°46.866 289 13.4 283 14.3
2007-03-29 05:41:14 51°16.074 2°46.837 289.5 13.4 282 14.2
2007-03-29 05:41:19 51°16.078 2°46.809 289.3 13.3 283 14.3
2007-03-29 05:41:24 51°16.082 2°46.78 289.5 13.3 282 14.2
2007-03-29 05:41:29 51°16.086 2°46.751 289.7 13.3 283 13.9
2007-03-29 05:41:34 51°16.09 2°46.723 289.8 13.2 283 14
2007-03-29 05:41:39 51°16.094 2°46.694 290.2 13.2 283 13.8
2007-03-29 05:41:44 51°16.098 2°46.666 290 13.2 283 13.7
2007-03-29 05:41:49 51°16.102 2°46.637 290.3 13.2 283 13.5
2007-03-29 05:41:54 51°16.106 2°46.609 290.3 13.2 283 13.1
2007-03-29 05:41:59 51°16.11 2°46.581 290.3 13.2 283 12.2
2007-03-29 05:42:04 51°16.114 2°46.552 290.3 13.2 283 12.5
2007-03-29 05:42:09 51°16.118 2°46.524 290.2 13.2 283 12.6
2007-03-29 05:42:14 51°16.122 2°46.495 290.3 13.2 283 12.5
2007-03-29 05:42:19 51°16.126 2°46.467 290.4 13.2 284 12.5
2007-03-29 05:42:24 51°16.131 2°46.439 290.8 13.2 283 12.3
2007-03-29 05:42:29 51°16.135 2°46.41 290.8 13.2 283 12.1
2007-03-29 05:42:34 51°16.139 2°46.382 290.3 13.2 282 12
2007-03-29 05:42:39 51°16.143 2°46.353 289.9 13.2 283 12
2007-03-29 05:42:44 51°16.147 2°46.325 290.1 13.1 282 11.7
2007-03-29 05:42:49 51°16.151 2°46.297 290.2 13 283 10.2
2007-03-29 05:42:54 51°16.155 2°46.269 290.4 13 283 10.3
2007-03-29 05:42:59 51°16.159 2°46.241 290.3 13 283 10.8
2007-03-29 05:43:04 51°16.162 2°46.213 290.3 13.1 283 10.8
2007-03-29 05:43:09 51°16.167 2°46.185 290.3 13.1 283 10.7
2007-03-29 05:43:14 51°16.17 2°46.156 290.1 13.2 282 10.7
2007-03-29 05:43:19 51°16.174 2°46.128 289.5 13.1 283 10.7
2007-03-29 05:43:24 51°16.178 2°46.099 289.9 13.1 282 10.6
2007-03-29 05:43:29 51°16.182 2°46.071 290 13.1 283 10.7
2007-03-29 05:43:34 51°16.186 2°46.043 290.3 13.1 283 10.6
2007-03-29 05:43:39 51°16.19 2°46.015 290.3 13.1 283 10.6
2007-03-29 05:43:44 51°16.194 2°45.986 290.2 13.1 283 10.6
2007-03-29 05:43:49 51°16.198 2°45.958 290 13.1 282 10.5
2007-03-29 05:43:54 51°16.202 2°45.93 289.7 13.1 282 10.5
2007-03-29 05:43:59 51°16.206 2°45.902 289.9 13.1 283 10.4
2007-03-29 05:44:04 51°16.21 2°45.873 290.1 13.1 283 10.3
2007-03-29 05:44:09 51°16.214 2°45.845 290.2 13 283 10.3
2007-03-29 05:44:14 51°16.218 2°45.817 289.9 13 284 10.2
2007-03-29 05:44:19 51°16.225 2°45.791 292.2 12.9 290 10
2007-03-29 05:44:24 51°16.231 2°45.764 296.2 12.8 292 9.8
2007-03-29 05:44:29 51°16.239 2°45.738 299.4 12.8 295 10
2007-03-29 05:44:34 51°16.247 2°45.713 302.1 12.8 296 10
2007-03-29 05:44:39 51°16.255 2°45.688 303.9 12.8 297 10
2007-03-29 05:44:44 51°16.263 2°45.663 305.5 12.8 298 10
2007-03-29 05:44:49 51°16.271 2°45.638 306.3 12.8 298 10.1
2007-03-29 05:44:54 51°16.28 2°45.613 307 12.8 299 10
2007-03-29 05:44:59 51°16.288 2°45.588 307.4 12.8 298 9.9
2007-03-29 05:45:04 51°16.297 2°45.563 307.4 12.8 298 10.1
2007-03-29 05:45:09 51°16.305 2°45.537 307.1 12.9 298 10.1
2007-03-29 05:45:14 51°16.313 2°45.512 306.9 12.9 298 10.3
2007-03-29 05:45:19 51°16.322 2°45.487 307 12.9 298 10.4
2007-03-29 05:45:24 51°16.33 2°45.462 307.2 13 298 10.7
2007-03-29 05:45:29 51°16.338 2°45.436 307.3 13 298 10.4
2007-03-29 05:45:34 51°16.347 2°45.411 307.2 13 298 10.4
2007-03-29 05:45:39 51°16.355 2°45.386 307.2 12.9 299 10.5
2007-03-29 05:45:44 51°16.364 2°45.361 307.5 12.9 298 10.5
2007-03-29 05:45:49 51°16.372 2°45.336 307.6 12.9 298 10.6
2007-03-29 05:45:54 51°16.381 2°45.311 307.5 12.9 298 10.5
2007-03-29 05:45:59 51°16.389 2°45.285 307.3 12.9 298 10.4
2007-03-29 05:46:04 51°16.398 2°45.26 307.1 12.9 298 10.4
2007-03-29 05:46:09 51°16.406 2°45.235 307.3 12.9 298 10.4
2007-03-29 05:46:14 51°16.415 2°45.21 307.4 12.9 298 10.7
2007-03-29 05:46:19 51°16.424 2°45.185 307.8 12.9 301 10.9
2007-03-29 05:46:24 51°16.433 2°45.16 309.4 13 301 11.1
2007-03-29 05:46:29 51°16.443 2°45.136 310.5 13 302 11
2007-03-29 05:46:34 51°16.453 2°45.112 311.3 13 302 11.1
2007-03-29 05:46:39 51°16.462 2°45.088 311.9 12.9 303 11.2
2007-03-29 05:46:44 51°16.472 2°45.064 312.3 12.9 303 11.1
2007-03-29 05:46:49 51°16.482 2°45.04 312.7 12.9 303 11.2
2007-03-29 05:46:54 51°16.492 2°45.016 312.6 12.9 304 11.1
2007-03-29 05:46:59 51°16.502 2°44.993 312.7 12.9 304 11.2
2007-03-29 05:47:05 51°16.514 2°44.964 313.2 12.9 304 11.2
2007-03-29 05:47:09 51°16.522 2°44.945 313.2 12.9 304 11
2007-03-29 05:47:14 51°16.532 2°44.921 312.8 13 303 10.8
2007-03-29 05:47:19 51°16.542 2°44.896 312.3 13 302 10.5
2007-03-29 05:47:24 51°16.551 2°44.873 312 13 303 10.8
2007-03-29 05:47:29 51°16.561 2°44.849 312 12.9 303 10.8
2007-03-29 05:47:34 51°16.571 2°44.825 312.2 13 303 11.3
2007-03-29 05:47:39 51°16.58 2°44.801 312.4 13 303 11.3
2007-03-29 05:47:44 51°16.59 2°44.776 312.6 13 303 11.2
2007-03-29 05:47:49 51°16.6 2°44.753 312.3 13 303 11.1
2007-03-29 05:47:54 51°16.61 2°44.728 312 13 303 11.1
2007-03-29 05:47:59 51°16.619 2°44.704 312 13 303 11.4
2007-03-29 05:48:04 51°16.629 2°44.68 312.5 13 303 11.5
2007-03-29 05:48:09 51°16.639 2°44.656 312.7 13.1 303 11.8
2007-03-29 05:48:14 51°16.649 2°44.631 312.7 13.1 303 12
2007-03-29 05:48:19 51°16.659 2°44.607 312.6 13.2 303 11.8
2007-03-29 05:48:24 51°16.668 2°44.582 312.2 13.2 302 12
2007-03-29 05:48:29 51°16.678 2°44.557 311.9 13.2 302 12.1
2007-03-29 05:48:34 51°16.688 2°44.533 311.6 13.2 302 12.5
2007-03-29 05:48:39 51°16.697 2°44.508 311.7 13.2 302 12.5
2007-03-29 05:48:44 51°16.707 2°44.483 311.9 13.2 302 13.1
2007-03-29 05:48:49 51°16.717 2°44.458 312 13.2 302 13.4
2007-03-29 05:48:54 51°16.727 2°44.434 312 13.2 302 13.9
2007-03-29 05:48:59 51°16.736 2°44.409 312 13.2 302 14
2007-03-29 05:49:04 51°16.746 2°44.384 312.2 13.2 302 14.2
2007-03-29 05:49:09 51°16.756 2°44.359 312 13.2 302 14.2
2007-03-29 05:49:14 51°16.765 2°44.334 311.9 13.2 302 14.4
2007-03-29 05:49:19 51°16.775 2°44.309 311.7 13.2 302 14.4
2007-03-29 05:49:24 51°16.785 2°44.285 311.9 13.2 302 14.6
2007-03-29 05:49:29 51°16.795 2°44.26 312.1 13.3 302 14.7
2007-03-29 05:49:34 51°16.804 2°44.235 312 13.3 302 14.7
2007-03-29 05:49:39 51°16.814 2°44.21 312 13.2 302 14.8
2007-03-29 05:49:44 51°16.824 2°44.185 312.1 13.3 302 14.8
2007-03-29 05:49:49 51°16.833 2°44.16 312 13.2 302 14.9
2007-03-29 05:49:54 51°16.843 2°44.136 312 13.2 302 14.9
2007-03-29 05:49:59 51°16.853 2°44.111 311.8 13.3 302 14.9
2007-03-29 05:50:04 51°16.862 2°44.086 311.6 13.2 302 15
2007-03-29 05:50:09 51°16.872 2°44.062 311.5 13.2 302 15
2007-03-29 05:50:14 51°16.882 2°44.037 311.7 13.2 302 15.2
2007-03-29 05:50:19 51°16.891 2°44.012 311.9 13.2 302 15.1
2007-03-29 05:50:24 51°16.901 2°43.987 311.9 13.2 302 15.1
2007-03-29 05:50:29 51°16.911 2°43.962 311.7 13.3 302 14.8
2007-03-29 05:50:34 51°16.92 2°43.937 311.5 13.3 301 14.8
2007-03-29 05:50:39 51°16.929 2°43.912 311.1 13.2 301 15.1
2007-03-29 05:50:44 51°16.939 2°43.887 310.7 13.2 302 15.1
2007-03-29 05:50:49 51°16.948 2°43.862 310.7 13.3 301 14.8
2007-03-29 05:50:54 51°16.958 2°43.837 311.1 13.3 302 14.7
2007-03-29 05:50:59 51°16.968 2°43.812 311.3 13.3 302 14.4
2007-03-29 05:51:04 51°16.978 2°43.787 311.5 13.2 302 14.5
2007-03-29 05:51:09 51°16.988 2°43.763 311.5 13.3 302 14.5
2007-03-29 05:51:14 51°16.998 2°43.737 311.4 13.3 302 14.4
2007-03-29 05:51:19 51°17.007 2°43.713 311.3 13.3 302 14.4
2007-03-29 05:51:24 51°17.017 2°43.688 311.6 13.2 302 14.3
2007-03-29 05:51:29 51°17.027 2°43.663 311.6 13.3 302 14.2
2007-03-29 05:51:34 51°17.037 2°43.638 311.7 13.2 303 14.1
2007-03-29 05:51:39 51°17.047 2°43.614 311.7 13.2 302 14.3
2007-03-29 05:51:44 51°17.057 2°43.589 311.7 13.3 302 14.5
2007-03-29 05:51:49 51°17.066 2°43.564 311.6 13.3 302 14.4
2007-03-29 05:51:54 51°17.076 2°43.539 311.4 13.2 302 14.3
2007-03-29 05:51:59 51°17.086 2°43.514 311.4 13.2 303 14.3
2007-03-29 05:52:04 51°17.096 2°43.49 311.5 13.2 303 14.4
2007-03-29 05:52:09 51°17.106 2°43.465 311.6 13.2 303 14.2
2007-03-29 05:52:14 51°17.116 2°43.44 311.8 13.3 302 14.2
2007-03-29 05:52:19 51°17.126 2°43.416 311.5 13.2 303 14.1
2007-03-29 05:52:24 51°17.136 2°43.391 311.5 13.2 302 14
2007-03-29 05:52:29 51°17.146 2°43.366 311.3 13.2 303 13.7
2007-03-29 05:52:34 51°17.156 2°43.341 311.5 13.3 303 13.3
2007-03-29 05:52:39 51°17.166 2°43.317 311.6 13.2 303 12.7
2007-03-29 05:52:44 51°17.176 2°43.292 311.9 13.1 302 12.1
2007-03-29 05:52:49 51°17.185 2°43.268 311.6 13.1 303 10.9
2007-03-29 05:52:54 51°17.195 2°43.243 311.5 13.1 302 11.9
2007-03-29 05:52:59 51°17.205 2°43.219 311.3 13.2 304 12.8
2007-03-29 05:53:04 51°17.215 2°43.195 311.6 13.3 303 12.9
2007-03-29 05:53:09 51°17.225 2°43.17 311.6 13.3 304 11.9
2007-03-29 05:53:14 51°17.235 2°43.146 311.7 13.2 303 10.7
2007-03-29 05:53:19 51°17.245 2°43.121 311.9 13.1 303 11.4
2007-03-29 05:53:24 51°17.255 2°43.097 311.9 13.2 304 12.8
2007-03-29 05:53:29 51°17.265 2°43.073 312 13.3 303 12.6
2007-03-29 05:53:34 51°17.275 2°43.048 311.8 13.3 303 12.1
2007-03-29 05:53:39 51°17.285 2°43.023 311.7 13.2 303 11.6
2007-03-29 05:53:44 51°17.295 2°42.999 311.4 13.1 303 11.1
2007-03-29 05:53:49 51°17.305 2°42.975 311.5 13.1 303 10
2007-03-29 05:53:54 51°17.315 2°42.951 311.5 13 304 9.6
2007-03-29 05:53:59 51°17.325 2°42.927 311.8 13 303 10.2
2007-03-29 05:54:04 51°17.335 2°42.903 311.9 13.1 303 9.9
2007-03-29 05:54:09 51°17.345 2°42.879 311.5 13.1 303 9.5
2007-03-29 05:54:14 51°17.355 2°42.854 311 13 303 8.6
2007-03-29 05:54:19 51°17.365 2°42.83 311 12.9 303 9.2
2007-03-29 05:54:24 51°17.375 2°42.807 311.1 13.1 304 10.8
2007-03-29 05:54:29 51°17.385 2°42.782 311.4 13.4 304 11.4
2007-03-29 05:54:34 51°17.395 2°42.757 311.7 13.5 304 11.6
2007-03-29 05:54:39 51°17.406 2°42.732 311.9 13.5 303 11.6
2007-03-29 05:54:44 51°17.416 2°42.708 311.5 13.4 304 12.2
2007-03-29 05:54:49 51°17.426 2°42.683 311.3 13.4 303 13
2007-03-29 05:54:54 51°17.437 2°42.658 311.3 13.5 304 14
2007-03-29 05:54:59 51°17.447 2°42.633 311.5 13.5 303 15.7
2007-03-29 05:55:04 51°17.457 2°42.609 311.5 13.5 304 17.7
2007-03-29 05:55:09 51°17.468 2°42.583 311.6 13.5 303 19.5
2007-03-29 05:55:14 51°17.478 2°42.558 311.2 13.4 303 20.5
2007-03-29 05:55:19 51°17.488 2°42.533 311.1 13.4 303 20.9
2007-03-29 05:55:24 51°17.499 2°42.508 310.9 13.4 303 21.3
2007-03-29 05:55:29 51°17.509 2°42.483 310.8 13.4 303 21.8
2007-03-29 05:55:34 51°17.519 2°42.458 310.6 13.4 303 22.1
2007-03-29 05:55:39 51°17.529 2°42.434 310.5 13.4 303 22.1
2007-03-29 05:55:44 51°17.539 2°42.409 310.6 13.4 303 22.5
2007-03-29 05:55:49 51°17.549 2°42.384 310.9 13.4 303 22.7
2007-03-29 05:55:54 51°17.56 2°42.359 311 13.3 303 23.1
2007-03-29 05:55:59 51°17.569 2°42.335 310.9 13.3 303 23
2007-03-29 05:56:04 51°17.58 2°42.31 310.8 13.4 303 23.2
2007-03-29 05:56:09 51°17.59 2°42.286 310.9 13.3 304 23.1
2007-03-29 05:56:14 51°17.6 2°42.261 311.3 13.3 303 23.2
2007-03-29 05:56:19 51°17.61 2°42.236 311.3 13.3 303 23.4
2007-03-29 05:56:24 51°17.62 2°42.211 311.1 13.3 303 23.5
2007-03-29 05:56:29 51°17.63 2°42.187 310.6 13.3 303 23.6
2007-03-29 05:56:34 51°17.64 2°42.162 310.8 13.3 303 23.9
2007-03-29 05:56:39 51°17.65 2°42.138 310.8 13.3 303 24.1
2007-03-29 05:56:44 51°17.66 2°42.113 311.2 13.3 303 24
2007-03-29 05:56:49 51°17.67 2°42.088 311 13.2 303 23.8
2007-03-29 05:56:54 51°17.68 2°42.063 310.8 13.3 303 23.8
2007-03-29 05:56:59 51°17.69 2°42.038 310.6 13.3 302 23.9
2007-03-29 05:57:04 51°17.699 2°42.014 310.6 13.3 301 24
2007-03-29 05:57:09 51°17.709 2°41.989 309.9 13.3 302 24
2007-03-29 05:57:14 51°17.719 2°41.964 310.2 13.3 303 23.9
2007-03-29 05:57:19 51°17.729 2°41.939 310.6 13.3 302 23.9
2007-03-29 05:57:24 51°17.739 2°41.914 310.8 13.3 302 24
2007-03-29 05:57:29 51°17.749 2°41.889 310.9 13.3 302 23.9
2007-03-29 05:57:34 51°17.759 2°41.864 310.6 13.3 302 23.8
2007-03-29 05:57:39 51°17.768 2°41.839 310.5 13.3 301 23.8
2007-03-29 05:57:44 51°17.777 2°41.814 310.2 13.3 300 23.9
2007-03-29 05:57:49 51°17.786 2°41.789 309.7 13.3 301 23.8
2007-03-29 05:57:54 51°17.796 2°41.763 309.6 13.3 301 23.9
2007-03-29 05:57:59 51°17.805 2°41.738 310 13.2 301 23.8
2007-03-29 05:58:04 51°17.815 2°41.713 310.6 13.2 302 23.9
2007-03-29 05:58:09 51°17.825 2°41.688 311.1 13.2 302 23.8
2007-03-29 05:58:14 51°17.835 2°41.663 311.5 13.2 302 23.7
2007-03-29 05:58:19 51°17.844 2°41.639 311.4 13.1 302 23.8
2007-03-29 05:58:24 51°17.854 2°41.614 311.2 13.2 302 23.6
2007-03-29 05:58:29 51°17.864 2°41.589 311.3 13.1 303 23.6
2007-03-29 05:58:34 51°17.874 2°41.564 311.6 13.1 302 23.4
2007-03-29 05:58:39 51°17.884 2°41.54 311.6 13.1 303 23.4
2007-03-29 05:58:44 51°17.893 2°41.515 311.5 13.1 302 23.4
2007-03-29 05:58:49 51°17.903 2°41.49 311.4 13.1 302 23.3
2007-03-29 05:58:54 51°17.912 2°41.466 311.2 13.1 302 23
2007-03-29 05:58:59 51°17.922 2°41.442 311.2 13 302 22.8
2007-03-29 05:59:04 51°17.931 2°41.418 311.2 13 302 22.4
2007-03-29 05:59:09 51°17.941 2°41.393 311.3 13 302 22.9
2007-03-29 05:59:14 51°17.95 2°41.369 311.3 13 303 22.8
2007-03-29 05:59:19 51°17.96 2°41.345 311.6 13 302 22.5
2007-03-29 05:59:24 51°17.97 2°41.321 311.6 13 303 22.6
2007-03-29 05:59:29 51°17.98 2°41.296 311.7 13 302 22.5
2007-03-29 05:59:34 51°17.989 2°41.272 311.6 13 303 22.3
2007-03-29 05:59:39 51°17.999 2°41.248 311.5 13 302 22
2007-03-29 05:59:44 51°18.009 2°41.224 311.4 13.1 303 21.6
2007-03-29 05:59:49 51°18.019 2°41.199 311.5 13.1 303 20.5
2007-03-29 05:59:54 51°18.028 2°41.175 311.5 13 303 19.5
2007-03-29 05:59:59 51°18.038 2°41.151 311.5 13.1 303 20.7
2007-03-29 06:00:04 51°18.048 2°41.126 311.7 13.1 303 20.9
2007-03-29 06:00:09 51°18.059 2°41.102 311.7 13.1 303 21
2007-03-29 06:00:14 51°18.069 2°41.078 311.7 13.1 303 20.7
2007-03-29 06:00:19 51°18.079 2°41.054 311.7 13.1 304 20.3
2007-03-29 06:00:24 51°18.089 2°41.03 312 13.1 303 19.8
2007-03-29 06:00:29 51°18.098 2°41.005 311.9 13.1 303 18.1
2007-03-29 06:00:34 51°18.108 2°40.981 311.7 13.1 303 17.3
2007-03-29 06:00:39 51°18.118 2°40.957 311.4 13.1 303 18.4
2007-03-29 06:00:44 51°18.128 2°40.932 311.4 13.1 304 18.7
2007-03-29 06:00:49 51°18.138 2°40.908 311.8 13.1 303 15.9
2007-03-29 06:00:54 51°18.148 2°40.884 312 13.2 304 16.7
2007-03-29 06:00:59 51°18.158 2°40.86 311.9 13.1 304 16.7
2007-03-29 06:01:04 51°18.168 2°40.836 311.8 13.1 303 13.5
2007-03-29 06:01:09 51°18.178 2°40.812 311.4 13.2 304 14.9
2007-03-29 06:01:14 51°18.188 2°40.787 311.5 13.2 304 16.3
2007-03-29 06:01:19 51°18.199 2°40.763 311.6 13.2 304 17.2
2007-03-29 06:01:24 51°18.209 2°40.738 311.9 13.3 303 17.6
2007-03-29 06:01:29 51°18.219 2°40.714 311.7 13.3 304 18.2
2007-03-29 06:01:34 51°18.23 2°40.69 311.6 13.3 304 18.1
2007-03-29 06:01:39 51°18.24 2°40.665 311.5 13.3 303 15.6
2007-03-29 06:01:44 51°18.25 2°40.641 311.5 13.3 303 17.1
2007-03-29 06:01:49 51°18.26 2°40.616 311.3 13.3 303 18.9
2007-03-29 06:01:54 51°18.27 2°40.591 311.3 13.3 304 19.4
2007-03-29 06:01:59 51°18.28 2°40.567 311.6 13.3 303 19.5
2007-03-29 06:02:04 51°18.29 2°40.542 311.7 13.3 304 19.6
2007-03-29 06:02:09 51°18.3 2°40.518 311.5 13.3 303 17.1
2007-03-29 06:02:14 51°18.31 2°40.493 311.3 13.3 303 16.1
2007-03-29 06:02:19 51°18.32 2°40.468 311 13.2 303 16.5
2007-03-29 06:02:24 51°18.33 2°40.443 310.9 13.3 303 16.7
2007-03-29 06:02:29 51°18.34 2°40.419 310.6 13.3 303 16.9
2007-03-29 06:02:34 51°18.351 2°40.394 310.8 13.3 303 16.7
2007-03-29 06:02:39 51°18.361 2°40.37 311.2 13.2 303 16.4
2007-03-29 06:02:44 51°18.371 2°40.346 311.3 13.1 304 15
2007-03-29 06:02:49 51°18.381 2°40.321 311.3 13.1 304 10.4
2007-03-29 06:02:54 51°18.391 2°40.297 311.6 13 303 11.7
2007-03-29 06:02:59 51°18.401 2°40.274 311.5 13 304 14.2
2007-03-29 06:03:05 51°18.413 2°40.244 311.7 13.2 304 15.5
2007-03-29 06:03:09 51°18.422 2°40.225 311.6 13.3 304 15.6
2007-03-29 06:03:14 51°18.432 2°40.2 311.6 13.3 304 17.2
2007-03-29 06:03:19 51°18.442 2°40.176 311.6 13.3 304 19.8
2007-03-29 06:03:24 51°18.453 2°40.151 311.3 13.3 304 21.8
2007-03-29 06:03:29 51°18.463 2°40.127 311.2 13.3 304 23.3
2007-03-29 06:03:34 51°18.473 2°40.103 311.2 13.3 305 24.1
2007-03-29 06:03:39 51°18.484 2°40.078 311.5 13.3 304 24.4
2007-03-29 06:03:44 51°18.494 2°40.054 311.5 13.3 303 24.6
2007-03-29 06:03:49 51°18.504 2°40.029 310.8 13.2 304 24.8
2007-03-29 06:03:54 51°18.514 2°40.005 311 13.3 303 25.1
2007-03-29 06:03:59 51°18.525 2°39.98 311.1 13.3 304 24.8
2007-03-29 06:04:04 51°18.535 2°39.956 311.3 13.2 304 24.8
2007-03-29 06:04:09 51°18.545 2°39.932 311.3 13.2 304 24.8
2007-03-29 06:04:14 51°18.555 2°39.908 311.3 13.3 303 24.9
2007-03-29 06:04:19 51°18.565 2°39.883 311.1 13.2 304 25.2
2007-03-29 06:04:24 51°18.576 2°39.859 310.9 13.2 304 25
2007-03-29 06:04:29 51°18.586 2°39.835 311.2 13.2 304 24.9
2007-03-29 06:04:34 51°18.596 2°39.81 311.3 13.2 304 25
2007-03-29 06:04:39 51°18.606 2°39.786 311.2 13.2 303 25
2007-03-29 06:04:44 51°18.616 2°39.762 310.8 13.2 303 25.5
2007-03-29 06:04:49 51°18.626 2°39.738 310.9 13.2 303 24.9
2007-03-29 06:04:54 51°18.636 2°39.713 310.9 13.2 303 24.6
2007-03-29 06:04:59 51°18.646 2°39.689 310.6 13.2 303 24.4
2007-03-29 06:05:05 51°18.658 2°39.659 310.7 13.2 304 24.8
2007-03-29 06:05:09 51°18.666 2°39.64 311.2 13.2 304 24.3
2007-03-29 06:05:14 51°18.676 2°39.616 311.3 13.2 304 24.8
2007-03-29 06:05:19 51°18.686 2°39.592 311.5 13.2 304 24.9
2007-03-29 06:05:24 51°18.696 2°39.567 311.3 13.2 304 25
2007-03-29 06:05:29 51°18.706 2°39.543 311.3 13.2 304 25
2007-03-29 06:05:34 51°18.717 2°39.519 311.3 13.2 304 24.9
2007-03-29 06:05:39 51°18.727 2°39.495 311.5 13.2 303 24.9
2007-03-29 06:05:44 51°18.738 2°39.47 311.3 13.2 304 25.1
2007-03-29 06:05:49 51°18.747 2°39.446 311.3 13.2 304 25
2007-03-29 06:05:54 51°18.758 2°39.422 311.4 13.3 304 25
2007-03-29 06:05:59 51°18.768 2°39.397 311.3 13.3 303 25
2007-03-29 06:06:04 51°18.778 2°39.373 311.3 13.2 303 25.2
2007-03-29 06:06:09 51°18.788 2°39.348 311.3 13.2 303 25.2
2007-03-29 06:06:14 51°18.798 2°39.324 311.3 13.3 303 25.3
2007-03-29 06:06:19 51°18.808 2°39.3 311.3 13.2 304 25.5
2007-03-29 06:06:24 51°18.818 2°39.275 311.3 13.2 302 25.7
2007-03-29 06:06:29 51°18.827 2°39.25 311.3 13.2 302 25.6
2007-03-29 06:06:34 51°18.837 2°39.225 310.8 13.1 301 25.6
2007-03-29 06:06:39 51°18.846 2°39.201 310.2 13.1 301 25.7
2007-03-29 06:06:44 51°18.856 2°39.176 310.1 13.1 301 25.9
2007-03-29 06:06:49 51°18.866 2°39.152 310.5 13 302 26
2007-03-29 06:06:54 51°18.875 2°39.127 310.8 13 302 26.2
2007-03-29 06:06:59 51°18.885 2°39.103 311 13 302 26.5
2007-03-29 06:07:04 51°18.894 2°39.078 311.3 13 302 26.9
2007-03-29 06:07:09 51°18.904 2°39.054 311.1 13.1 303 27.1
2007-03-29 06:07:14 51°18.914 2°39.029 311.3 13 303 27.4
2007-03-29 06:07:19 51°18.923 2°39.005 311.7 13 302 27.3
2007-03-29 06:07:24 51°18.933 2°38.981 311.4 13.1 303 27.7
2007-03-29 06:07:29 51°18.943 2°38.956 311.5 13.1 303 27.9
2007-03-29 06:07:34 51°18.953 2°38.932 311.6 13 303 28
2007-03-29 06:07:39 51°18.962 2°38.907 311.9 13.1 302 27.7
2007-03-29 06:07:44 51°18.972 2°38.883 311.7 13 303 27.6
2007-03-29 06:07:49 51°18.981 2°38.859 311.6 13.1 302 26.2
2007-03-29 06:07:54 51°18.991 2°38.834 311.4 13 302 27.6
2007-03-29 06:07:59 51°19 2°38.81 311.1 13 302 27.4
2007-03-29 06:08:04 51°19.01 2°38.785 311 13.1 302 27.3
2007-03-29 06:08:09 51°19.02 2°38.761 311.1 13.1 303 27.5
2007-03-29 06:08:14 51°19.029 2°38.736 311.4 13 302 27.7
2007-03-29 06:08:19 51°19.039 2°38.712 311.4 13 303 27.9
2007-03-29 06:08:24 51°19.048 2°38.687 311.6 13.1 302 27.8
2007-03-29 06:08:29 51°19.058 2°38.663 311.3 13.1 302 27.5
2007-03-29 06:08:34 51°19.068 2°38.639 311.2 13 302 27.6
2007-03-29 06:08:39 51°19.077 2°38.614 311.4 13 302 27.6
2007-03-29 06:08:44 51°19.087 2°38.59 311.4 13 303 27.5
2007-03-29 06:08:49 51°19.097 2°38.566 311.9 13 302 27.8
2007-03-29 06:08:54 51°19.107 2°38.541 311.6 13 303 27.6
2007-03-29 06:08:59 51°19.116 2°38.517 311.7 13 304 27.4
2007-03-29 06:09:04 51°19.127 2°38.494 312.5 13 304 27.4
2007-03-29 06:09:09 51°19.137 2°38.47 312.8 13 304 27.1
2007-03-29 06:09:14 51°19.147 2°38.446 313.4 13 304 27.1
2007-03-29 06:09:19 51°19.158 2°38.423 313.5 13 306 26.7
2007-03-29 06:09:24 51°19.168 2°38.399 314 13 305 26.4
2007-03-29 06:09:29 51°19.178 2°38.376 314.1 12.9 306 25.7
2007-03-29 06:09:34 51°19.188 2°38.352 314.1 12.9 304 25.8
2007-03-29 06:09:39 51°19.199 2°38.329 313.7 13 305 25.4
2007-03-29 06:09:44 51°19.209 2°38.305 313.7 12.9 305 25.1
2007-03-29 06:09:49 51°19.219 2°38.282 313.6 12.9 305 25.1
2007-03-29 06:09:54 51°19.23 2°38.258 313.5 12.9 305 24.4
2007-03-29 06:09:59 51°19.24 2°38.235 313.6 13 305 24.3
2007-03-29 06:10:04 51°19.251 2°38.211 313.5 13 304 24.1
2007-03-29 06:10:09 51°19.261 2°38.188 313.5 13 305 24
2007-03-29 06:10:14 51°19.272 2°38.164 313.5 13 305 24
2007-03-29 06:10:19 51°19.282 2°38.14 313.5 13 305 24
2007-03-29 06:10:24 51°19.292 2°38.117 313.6 13 306 23.4
2007-03-29 06:10:29 51°19.303 2°38.094 314.4 13 306 22.7
2007-03-29 06:10:34 51°19.313 2°38.071 315.1 13 306 20.8
2007-03-29 06:10:39 51°19.324 2°38.048 315 13 306 22.2
2007-03-29 06:10:44 51°19.335 2°38.025 315.1 13 307 22.2
2007-03-29 06:10:49 51°19.346 2°38.002 315.4 13 307 22.4
2007-03-29 06:10:54 51°19.356 2°37.979 315.8 13 307 22.7
2007-03-29 06:10:59 51°19.367 2°37.956 315.9 12.9 307 22.3
2007-03-29 06:11:04 51°19.378 2°37.933 315.8 12.9 308 22.1
2007-03-29 06:11:09 51°19.389 2°37.911 316 12.9 308 22.1
2007-03-29 06:11:14 51°19.4 2°37.888 316.4 13 307 21.7
2007-03-29 06:11:19 51°19.411 2°37.866 316 13 308 20.7
2007-03-29 06:11:24 51°19.422 2°37.843 315.9 13 309 20.5
2007-03-29 06:11:29 51°19.434 2°37.82 316.4 13 308 19.6
2007-03-29 06:11:34 51°19.445 2°37.798 316.4 13 307 20.8
2007-03-29 06:11:39 51°19.455 2°37.774 315.6 13 307 21.4
2007-03-29 06:11:44 51°19.466 2°37.751 314.9 13.1 306 21.7
2007-03-29 06:11:49 51°19.477 2°37.728 314.6 13 307 21.4
2007-03-29 06:11:54 51°19.487 2°37.704 314.8 13 307 20.7
2007-03-29 06:11:59 51°19.498 2°37.681 315.1 13 307 20.1
2007-03-29 06:12:04 51°19.509 2°37.658 315.1 13.1 306 18.4
2007-03-29 06:12:09 51°19.52 2°37.635 314.9 13 307 20.1
2007-03-29 06:12:14 51°19.531 2°37.612 315 13.1 307 21.2
2007-03-29 06:12:19 51°19.542 2°37.589 315.2 13.1 307 21.5
2007-03-29 06:12:24 51°19.553 2°37.566 315.6 13 308 21.1
2007-03-29 06:12:29 51°19.564 2°37.543 315.9 13 307 20.1
2007-03-29 06:12:34 51°19.575 2°37.52 315.9 13 307 19.6
2007-03-29 06:12:39 51°19.585 2°37.497 315.7 13.1 307 21.1
2007-03-29 06:12:44 51°19.596 2°37.474 315.3 13.1 307 22
2007-03-29 06:12:49 51°19.607 2°37.451 315.6 13.1 307 22.3
2007-03-29 06:12:54 51°19.618 2°37.428 315.7 13.1 308 22.6
2007-03-29 06:12:59 51°19.629 2°37.405 316 13.1 307 22.5
2007-03-29 06:13:04 51°19.641 2°37.382 316 13.1 307 21.9
2007-03-29 06:13:09 51°19.651 2°37.359 315.9 13.1 307 20.3
2007-03-29 06:13:14 51°19.662 2°37.336 315.6 13.1 307 21.1
2007-03-29 06:13:19 51°19.673 2°37.312 315.4 13.1 307 21.5
2007-03-29 06:13:24 51°19.684 2°37.289 315.5 13.1 307 21.9
2007-03-29 06:13:29 51°19.695 2°37.266 315.4 13.1 308 25
2007-03-29 06:13:34 51°19.707 2°37.244 316.3 13.1 309 21.7
2007-03-29 06:13:39 51°19.719 2°37.222 316.9 13.1 310 21.8
2007-03-29 06:13:44 51°19.73 2°37.2 317.9 13.1 309 21.5
2007-03-29 06:13:49 51°19.741 2°37.178 318 12.8 309 20.6
2007-03-29 06:13:54 51°19.752 2°37.156 318 12.4 309 20.6
2007-03-29 06:13:59 51°19.763 2°37.136 318 11.8 309 21.2
2007-03-29 06:14:04 51°19.772 2°37.117 317.9 10.9 309 21.1
2007-03-29 06:14:09 51°19.781 2°37.099 318.1 10.2 309 21.4
2007-03-29 06:14:14 51°19.79 2°37.082 318.1 9.8 309 21.5
2007-03-29 06:14:19 51°19.798 2°37.066 318.3 9.3 309 21.5
2007-03-29 06:14:25 51°19.807 2°37.048 318.3 8.8 308 21.4
2007-03-29 06:14:29 51°19.813 2°37.036 318 8.4 308 20.7
2007-03-29 06:14:34 51°19.82 2°37.022 317.7 8.1 308 20.5
2007-03-29 06:14:39 51°19.826 2°37.009 317.3 7.7 308 20.3
2007-03-29 06:14:44 51°19.833 2°36.997 317.2 7.1 311 20.4
2007-03-29 06:14:49 51°19.84 2°36.987 321.5 6.6 319 21.2
2007-03-29 06:14:54 51°19.846 2°36.978 326.7 6.1 323 21.3
2007-03-29 06:14:59 51°19.853 2°36.972 332.9 5.7 328 21.3
2007-03-29 06:15:04 51°19.86 2°36.966 338.5 5.3 331 21.2
2007-03-29 06:15:09 51°19.866 2°36.961 342.7 4.9 333 20.8
2007-03-29 06:15:14 51°19.871 2°36.956 345.4 4.5 333 20.5
2007-03-29 06:15:19 51°19.877 2°36.952 346.6 4.3 333 20.4
2007-03-29 06:15:24 51°19.882 2°36.948 347.2 4 334 20.1
2007-03-29 06:15:29 51°19.886 2°36.944 347.6 3.9 334 20.4
2007-03-29 06:15:34 51°19.891 2°36.941 347.8 3.7 334 20.7
2007-03-29 06:15:39 51°19.895 2°36.937 347.7 3.5 335 20.9
2007-03-29 06:15:44 51°19.9 2°36.934 347.4 3.3 334 21
2007-03-29 06:15:49 51°19.904 2°36.931 347.4 3.2 333 21.1
2007-03-29 06:15:54 51°19.907 2°36.928 346.9 3 333 21.1
2007-03-29 06:15:59 51°19.911 2°36.924 345.7 2.9 332 21
2007-03-29 06:16:04 51°19.914 2°36.922 344.7 2.7 331 21.2
2007-03-29 06:16:09 51°19.917 2°36.919 343.8 2.6 328 21.5
2007-03-29 06:16:14 51°19.92 2°36.916 343.3 2.5 329 21.6
2007-03-29 06:16:19 51°19.923 2°36.913 342.6 2.4 326 21.6
2007-03-29 06:16:24 51°19.926 2°36.91 341.6 2.3 326 21.6
2007-03-29 06:16:29 51°19.928 2°36.907 340.9 2.2 325 21.7
2007-03-29 06:16:34 51°19.93 2°36.904 340.4 2.1 324 21.5
2007-03-29 06:16:39 51°19.932 2°36.901 340 2.1 321 21.4
2007-03-29 06:16:44 51°19.935 2°36.899 339.6 2 322 21.5
2007-03-29 06:16:49 51°19.937 2°36.896 339.1 1.9 320 21.9
2007-03-29 06:16:54 51°19.939 2°36.894 338.6 1.8 320 21.7
2007-03-29 06:16:59 51°19.941 2°36.891 338.5 1.8 319 21.6
2007-03-29 06:17:04 51°19.942 2°36.889 338.4 1.7 319 21.7
2007-03-29 06:17:09 51°19.944 2°36.886 338.2 1.6 319 21.6
2007-03-29 06:17:14 51°19.945 2°36.884 338.3 1.6 318 21.6
2007-03-29 06:17:19 51°19.947 2°36.882 338.3 1.5 318 21.5
2007-03-29 06:17:24 51°19.948 2°36.879 338.4 1.5 318 21.5
2007-03-29 06:17:29 51°19.95 2°36.877 338.4 1.4 314 21.6
2007-03-29 06:17:34 51°19.951 2°36.875 338.3 1.3 313 21.6
2007-03-29 06:17:39 51°19.952 2°36.873 338.2 1.3 311 21.8
2007-03-29 06:17:44 51°19.953 2°36.871 338 1.2 317 21.8
2007-03-29 06:17:49 51°19.954 2°36.869 337.6 1.2 312 21.9
2007-03-29 06:17:54 51°19.956 2°36.867 337.7 1.1 315 21.9
2007-03-29 06:17:59 51°19.957 2°36.866 337.7 1.1 312 21.9
2007-03-29 06:18:04 51°19.958 2°36.864 337.5 1 314 21.9
2007-03-29 06:18:09 51°19.958 2°36.862 337.6 1 307 21.9
2007-03-29 06:18:14 51°19.959 2°36.861 337.4 1 309 21.8
2007-03-29 06:18:19 51°19.96 2°36.859 337.3 0.9 305 21.8
2007-03-29 06:18:24 51°19.961 2°36.857 337.3 0.8 307 21.8
2007-03-29 06:18:29 51°19.961 2°36.856 337.1 0.8 305 21.9
2007-03-29 06:18:34 51°19.962 2°36.855 337.1 0.8 304 21.7
2007-03-29 06:18:39 51°19.963 2°36.853 337 0.8 303 21.5
2007-03-29 06:18:45 51°19.963 2°36.851 337 0.8 305 21.5
2007-03-29 06:18:49 51°19.964 2°36.85 336.6 0.8 299 21.4
2007-03-29 06:18:54 51°19.964 2°36.849 336.1 0.8 298 21.4
2007-03-29 06:18:59 51°19.965 2°36.847 335.6 0.6 300 21.4
2007-03-29 06:19:04 51°19.965 2°36.846 335.7 0.6 300 21.3
2007-03-29 06:19:09 51°19.966 2°36.845 335.9 0.6 301 21
2007-03-29 06:19:14 51°19.966 2°36.844 335.9 0.6 295 21
2007-03-29 06:19:19 51°19.966 2°36.843 335.9 0.6 298 21
2007-03-29 06:19:24 51°19.967 2°36.842 335.9 0.5 291 21
2007-03-29 06:19:29 51°19.967 2°36.84 335.8 0.6 291 21
2007-03-29 06:19:34 51°19.967 2°36.839 335.7 0.5 290 21
2007-03-29 06:19:39 51°19.968 2°36.838 335.5 0.5 282 20.8
2007-03-29 06:19:44 51°19.968 2°36.837 335.9 0.5 281 20.7
2007-03-29 06:19:49 51°19.968 2°36.836 335.7 0.5 281 20.6
2007-03-29 06:19:54 51°19.968 2°36.835 335.7 0.5 274 20.6
2007-03-29 06:19:59 51°19.968 2°36.834 335.7 0.5 272 20.6
2007-03-29 06:20:04 51°19.968 2°36.833 335.6 0.5 275 20.5
2007-03-29 06:20:09 51°19.968 2°36.832 335.5 0.5 276 20.4
2007-03-29 06:20:14 51°19.968 2°36.831 335.6 0.4 276 20.3
2007-03-29 06:20:19 51°19.968 2°36.83 335.6 0.4 266 20.4
2007-03-29 06:20:24 51°19.968 2°36.829 335.4 0.4 256 20.4
2007-03-29 06:20:29 51°19.968 2°36.828 335.6 0.4 264 20.3
2007-03-29 06:20:34 51°19.968 2°36.827 335.7 0.4 261 20.2
2007-03-29 06:20:39 51°19.968 2°36.827 336 0.3 266 20.4
2007-03-29 06:20:44 51°19.967 2°36.826 336.1 0.4 246 20.6
2007-03-29 06:20:49 51°19.967 2°36.826 336 0.3 238 20.9
2007-03-29 06:20:54 51°19.967 2°36.825 336.2 0.4 249 21.1
2007-03-29 06:20:59 51°19.967 2°36.824 336.3 0.3 240 21.3
2007-03-29 06:21:05 51°19.967 2°36.823 336.4 0.3 242 21.5
2007-03-29 06:21:09 51°19.966 2°36.823 336.5 0.4 229 21.5
2007-03-29 06:21:14 51°19.966 2°36.822 336.2 0.3 230 21.5
2007-03-29 06:21:19 51°19.966 2°36.822 336.2 0.3 232 21.5
2007-03-29 06:21:24 51°19.965 2°36.821 336.3 0.3 226 21.6
2007-03-29 06:21:29 51°19.965 2°36.821 336.3 0.3 225 21.6
2007-03-29 06:21:34 51°19.965 2°36.82 336.4 0.3 224 21.5
2007-03-29 06:21:39 51°19.964 2°36.82 336.5 0.3 225 21.5
2007-03-29 06:21:44 51°19.964 2°36.819 336.4 0.3 223 21.5
2007-03-29 06:21:49 51°19.964 2°36.819 336.6 0.3 220 21.5
2007-03-29 06:21:54 51°19.963 2°36.819 336.7 0.3 210 21.6
2007-03-29 06:21:59 51°19.963 2°36.818 336.9 0.3 206 21.6
2007-03-29 06:22:04 51°19.962 2°36.818 337.4 0.3 211 21.6
2007-03-29 06:22:09 51°19.962 2°36.818 337.7 0.3 208 21.7
2007-03-29 06:22:14 51°19.962 2°36.817 338.2 0.3 205 21.8
2007-03-29 06:22:19 51°19.961 2°36.817 338.4 0.3 194 22
2007-03-29 06:22:24 51°19.961 2°36.817 338.8 0.3 196 22
2007-03-29 06:22:29 51°19.96 2°36.817 339.4 0.3 198 21.9
2007-03-29 06:22:34 51°19.96 2°36.817 339.6 0.3 194 21.8
2007-03-29 06:22:39 51°19.959 2°36.816 340.2 0.4 182 21.8
2007-03-29 06:22:44 51°19.959 2°36.817 340.5 0.3 173 21.8
2007-03-29 06:22:49 51°19.958 2°36.817 341.6 0.3 171 21.6
2007-03-29 06:22:54 51°19.958 2°36.816 342.8 0.4 188 21.5
2007-03-29 06:22:59 51°19.957 2°36.816 343.3 0.4 186 21.5
2007-03-29 06:23:05 51°19.956 2°36.816 344 0.4 169 21.6
2007-03-29 06:23:09 51°19.956 2°36.816 344.4 0.4 175 21.8
2007-03-29 06:23:14 51°19.956 2°36.816 345.2 0.4 171 21.9
2007-03-29 06:23:19 51°19.955 2°36.817 345.9 0.3 166 21.8
2007-03-29 06:23:24 51°19.955 2°36.817 346.7 0.4 166 21.9
2007-03-29 06:23:29 51°19.954 2°36.817 347.3 0.4 167 22
2007-03-29 06:23:34 51°19.954 2°36.817 348.1 0.5 166 22.2
2007-03-29 06:23:39 51°19.953 2°36.817 349.3 0.5 177 22.1
2007-03-29 06:23:44 51°19.952 2°36.818 350.3 0.5 173 22.2
2007-03-29 06:23:49 51°19.951 2°36.818 351.2 0.5 171 22.1
2007-03-29 06:23:54 51°19.951 2°36.818 352 0.5 169 22.2
2007-03-29 06:23:59 51°19.95 2°36.818 352.9 0.5 171 22.1
2007-03-29 06:24:04 51°19.95 2°36.818 354.1 0.5 172 22
2007-03-29 06:24:09 51°19.949 2°36.818 354.9 0.5 173 22
2007-03-29 06:24:14 51°19.948 2°36.818 355.6 0.6 177 21.9
2007-03-29 06:24:19 51°19.947 2°36.819 356.4 0.5 176 21.9
2007-03-29 06:24:24 51°19.947 2°36.819 357 0.5 177 21.9
2007-03-29 06:24:29 51°19.946 2°36.819 357.8 0.6 174 21.8
2007-03-29 06:24:34 51°19.945 2°36.819 358.5 0.5 172 21.8
2007-03-29 06:24:39 51°19.944 2°36.819 359 0.5 171 21.8
2007-03-29 06:24:44 51°19.944 2°36.819 359.3 0.6 172 21.7
2007-03-29 06:24:49 51°19.943 2°36.82 359.9 0.6 164 21.8
2007-03-29 06:24:54 51°19.942 2°36.82 0.6 0.6 166 22
2007-03-29 06:24:59 51°19.941 2°36.821 1.4 0.6 166 21.8
2007-03-29 06:25:04 51°19.941 2°36.821 2.1 0.6 170 21.9